CW2099 Weather Reports


Display with metric or nautical units.
time (UTC)temp
F
wind
direction
speed
MPH
gust
MPH
rain 1hr
in
rain 24hr
in
rain mn
in
humidity
%
barometer
mb
20260903163002 64 5 0.0 2.0 0.03 0.03 0.03 70 1013.3
20260903161701 65 267 0.0 1.0 0.00 0.00 0.00 66 1014.2
20260903160059 65 267 1.0 7.0 0.00 0.00 0.00 66 1013.2
20260903154559 65 269 1.0 6.0 0.00 0.00 0.00 65 1012.9
20260903153057 65 267 1.0 7.0 0.00 0.00 0.00 65 1013.0
20260903151557 65 276 1.0 4.0 0.00 0.00 0.00 65 1012.8
20260903150111 65 278 2.0 6.0 0.00 0.00 0.00 65 1012.8
20260903144552 65 281 0.0 2.0 0.00 0.00 0.00 64 1012.8
20260903143053 65 275 2.0 4.0 0.00 0.00 0.00 63 1012.5
20260903141550 65 273 3.0 9.0 0.00 0.00 0.00 63 1012.5
20260903140051 65 266 4.0 8.0 0.00 0.00 0.00 62 1012.4
20260903134556 65 263 3.0 8.0 0.00 0.00 0.00 62 1012.6
20260903133053 65 274 0.0 6.0 0.00 0.00 0.00 61 1012.7
20260903131555 64 270 2.0 7.0 0.00 0.00 0.00 61 1012.6
20260903130054 64 271 3.0 8.0 0.00 0.00 0.00 61 1012.3
20260903124546 64 270 2.0 6.0 0.00 0.00 0.00 62 1012.4
20260903123046 64 281 3.0 6.0 0.00 0.00 0.00 62 1012.5
20260903121547 64 266 2.0 6.0 0.00 0.00 0.00 62 1012.6
20260903120047 64 265 2.0 6.0 0.00 0.02 0.00 61 1012.7
20260903114546 64 269 1.0 6.0 0.00 0.02 0.00 62 1012.6
20260903113046 63 288 2.0 6.0 0.00 0.02 0.00 62 1012.8
20260903111618 63 288 1.0 7.0 0.00 0.02 0.00 62 1012.7
20260903110047 63 274 2.0 4.0 0.00 0.12 0.00 63 1012.4
20260903104557 63 261 1.0 5.0 0.00 0.12 0.00 63 1012.4
20260903103043 63 276 1.0 4.0 0.00 0.12 0.00 63 1012.4
20260903101546 62 274 3.0 7.0 0.00 0.12 0.00 63 1012.5
20260903100042 62 267 2.0 3.0 0.00 0.12 0.00 65 1012.4
20260903094542 62 268 1.0 4.0 0.00 0.12 0.00 65 1012.5
20260903093044 62 275 1.0 3.0 0.00 0.12 0.00 64 1012.6
20260903091540 62 277 1.0 7.0 0.00 0.12 0.00 64 1012.3
20260903090047 62 283 2.0 4.0 0.00 0.12 0.00 63 1012.3
20260903084538 63 284 2.0 6.0 0.00 0.12 0.00 62 1012.3
20260903083036 63 272 2.0 4.0 0.00 0.12 0.00 63 1012.4
20260903081536 63 265 2.0 7.0 0.00 0.12 0.00 62 1012.5
20260903080200 63 268 3.0 6.0 0.00 0.12 0.00 62 1012.6
20260903074537 63 275 1.0 4.0 0.00 0.12 0.00 63 1012.7
20260903073041 63 265 2.0 4.0 0.00 0.12 0.00 62 1012.8
20260903071530 63 267 0.0 6.0 0.00 0.12 0.00 63 1012.8
20260903070037 63 275 2.0 6.0 0.00 0.12 0.00 62 1012.8
20260903064528 62 277 2.0 6.0 0.00 0.12 0.00 66 1012.8
20260903063029 62 251 0.0 0.0 0.00 0.12 0.00 66 1012.8
20260903061535 63 244 0.0 0.0 0.00 0.12 0.00 65 1012.7
20260903060030 63 244 0.0 0.0 0.00 0.12 0.00 65 1012.8
20260903054523 63 244 0.0 0.0 0.00 0.12 0.00 65 1012.5
20260903053021 63 244 0.0 0.0 0.00 0.12 0.00 65 1012.6
20260903051519 64 29 0.0 0.0 0.00 0.12 0.00 65 1012.6
20260903050016 64 29 0.0 1.0 0.00 0.12 0.12 65 1012.5
20260903044517 65 28 0.0 1.0 0.00 0.12 0.12 65 1012.3
20260903043016 65 29 0.0 1.0 0.00 0.12 0.12 65 1012.4
20260903041520 65 29 0.0 1.0 0.00 0.12 0.12 64 1012.2
20260903040017 66 29 0.0 0.0 0.00 0.12 0.12 64 1012.1
20260903034518 66 29 0.0 1.0 0.00 0.12 0.12 64 1012.2
20260903033015 66 29 0.0 0.0 0.00 0.12 0.12 64 1012.3
20260903031515 66 29 0.0 0.0 0.00 0.12 0.12 66 1012.2
20260903030018 66 29 0.0 2.0 0.00 0.12 0.12 72 1012.3
20260903024515 66 29 0.0 0.0 0.00 0.12 0.12 75 1012.2
20260903023014 66 29 0.0 0.0 0.00 0.12 0.12 72 1012.0
20260903021514 67 28 0.0 0.0 0.00 0.12 0.12 69 1011.9
20260903020014 67 29 0.0 0.0 0.00 0.12 0.12 68 1011.8
20260903014514 67 29 0.0 0.0 0.00 0.12 0.12 65 1011.6
20260903013025 68 29 0.0 0.0 0.00 0.12 0.12 66 1011.3
20260903011516 68 29 0.0 1.0 0.00 0.12 0.12 65 1010.9
20260903010027 69 29 0.0 1.0 0.00 0.12 0.12 64 1010.7
20260903004513 70 29 0.0 0.0 0.00 0.12 0.12 63 1010.6
20260903003016 71 29 0.0 0.0 0.00 0.12 0.12 62 1010.7
20260903001515 72 29 0.0 0.0 0.00 0.12 0.12 61 1010.7
20260903000013 73 29 0.0 0.0 0.00 0.12 0.12 59 1010.7
20260902234520 74 29 0.0 0.0 0.00 0.12 0.12 56 1010.7
20260902233013 74 29 0.0 0.0 0.00 0.12 0.12 54 1010.7
20260902231613 75 29 0.0 0.0 0.00 0.12 0.12 53 1010.6
20260902230012 76 29 0.0 1.0 0.00 0.12 0.12 52 1010.5
20260902224518 76 29 0.0 1.0 0.00 0.12 0.12 51 1010.7
20260902223015 77 29 0.0 3.0 0.00 0.12 0.12 51 1010.7
20260902221628 77 29 0.0 4.0 0.00 0.12 0.12 50 1010.7
20260902220035 78 28 0.0 1.0 0.00 0.12 0.12 49 1010.7
20260902214513 78 28 0.0 2.0 0.00 0.12 0.12 48 1010.7
20260902213012 79 28 0.0 3.0 0.00 0.12 0.12 49 1010.7
20260902211612 79 10 0.0 2.0 0.00 0.12 0.12 49 1010.7
20260902210017 79 24 0.0 3.0 0.00 0.12 0.12 48 1010.8
20260902204508 79 17 0.0 3.0 0.00 0.12 0.12 49 1010.8
20260902203005 78 250 1.0 4.0 0.00 0.12 0.12 50 1010.8
20260902201514 78 264 1.0 3.0 0.00 0.12 0.12 49 1011.1
20260902200003 78 296 1.0 3.0 0.00 0.12 0.12 51 1011.0
20260902194502 77 13 0.0 2.0 0.00 0.12 0.12 58 1011.1
20260902193106 77 280 1.0 3.0 0.00 0.12 0.12 58 1011.2
20260902191624 76 279 1.0 5.0 0.00 0.12 0.12 59 1011.2
20260902190056 76 314 0.0 4.0 0.00 0.12 0.12 60 1011.2
20260902184553 75 25 2.0 5.0 0.00 0.12 0.12 59 1011.4
20260902183110 75 51 1.0 4.0 0.00 0.12 0.12 62 1011.4
20260902181555 74 39 1.0 4.0 0.00 0.12 0.12 61 1011.4
20260902180048 74 5 0.0 3.0 0.00 0.12 0.12 64 1011.5
20260902174546 73 360 0.0 3.0 0.00 0.12 0.12 67 1011.6
20260902173044 73 331 0.0 2.0 0.00 0.12 0.12 67 1011.6
20260902171551 72 21 0.0 6.0 0.00 0.12 0.12 68 1011.9
20260902170039 72 23 1.0 5.0 0.00 0.12 0.12 69 1011.8
20260902164541 71 328 0.0 5.0 0.00 0.12 0.12 72 1011.8